Theta_e
340 340 342 346 347 347 348 348 348 347 347 347 347 348 348 348 349 349 350 350 350 350 350 349 348 349 350 349 349 348 348 347 346 346 346 346 346 346 346 346 346 348 347 347 347 347 347 348 347 347 347 347 348 348 348 348 348 348 348 348 348 347 347 347 347 347 346 345 345 344 342 342 342 342 342 342 342 341 340 340 339 337 336 337 338
338 341 342 344 347 347 347 347 347 347 348 347 347 347 348 348 348 348 348 348 349 349 349 349 349 349 348 348 348 348 348 348 347 346 345 345 346 346 346 346 345 345 346 346 348 348 348 348 348 348 348 347 347 347 347 348 348 348 348 348 348 348 347 347 347 347 345 343 343 341 340 340 340 341 341 342 343 341 340 340 340 336 335 338 339
343 343 342 345 347 347 347 347 348 347 347 346 346 347 347 348 348 348 347 347 347 348 349 348 348 348 348 348 348 348 347 345 344 344 344 343 343 345 345 345 344 344 344 348 348 348 348 348 348 348 348 348 348 347 348 348 347 347 346 349 348 347 347 347 346 343 342 342 341 341 340 339 339 340 341 342 341 340 340 340 339 339 333 337 336
340 341 342 344 346 346 346 347 347 347 347 347 347 347 347 347 348 347 347 347 347 347 348 348 348 348 348 348 348 348 346 345 344 343 343 343 345 345 346 346 345 343 347 348 349 349 348 348 347 347 347 348 349 349 348 348 347 348 348 348 347 346 346 346 344 343 343 341 340 340 339 332 336 340 339 338 338 338 338 337 337 335 335 335 335
341 340 341 341 344 346 347 347 347 346 346 347 346 346 347 347 347 347 347 347 347 347 348 348 348 348 348 347 347 347 347 345 344 343 343 342 344 347 346 346 345 345 345 347 348 348 347 347 347 346 348 348 350 349 348 348 348 348 347 347 347 346 346 345 343 341 341 340 339 339 331 331 332 338 338 338 337 337 336 334 333 335 334 333 333
341 341 341 340 342 344 347 346 346 346 346 346 346 346 346 347 347 347 346 347 347 347 347 348 348 347 348 348 347 347 347 345 343 344 347 345 347 347 347 346 346 346 346 346 347 347 348 347 347 348 348 349 348 347 346 346 346 346 346 346 346 346 345 345 343 341 340 340 339 334 331 332 333 334 336 335 334 334 334 334 333 333 333 333 333
341 341 341 341 341 343 346 346 346 345 345 345 345 345 346 346 346 347 346 347 347 347 347 347 347 347 347 348 347 348 347 347 346 346 347 347 346 347 347 347 347 347 347 349 349 349 348 347 348 348 347 347 346 345 344 343 343 343 344 344 344 344 344 345 344 341 341 339 333 331 330 332 332 333 335 333 334 334 333 333 334 334 334 333 331
340 341 341 341 343 345 346 346 345 345 345 345 345 346 345 345 346 346 347 347 347 348 348 347 347 347 348 347 348 348 347 346 346 346 346 346 346 346 346 346 348 347 348 347 348 348 347 347 348 347 347 347 347 346 345 345 345 345 344 345 342 342 342 342 343 345 344 341 338 334 330 331 332 333 338 336 334 335 336 335 336 336 334 333 330
339 340 341 340 342 346 346 345 345 345 345 345 344 345 346 346 346 346 347 346 346 347 347 347 347 347 348 348 347 347 347 346 345 345 346 346 346 346 346 346 347 346 345 346 347 347 347 347 347 348 348 347 346 346 344 344 344 345 345 346 345 345 345 345 344 344 343 341 339 332 330 332 333 332 337 336 335 334 338 339 338 335 334 331 330
339 340 340 339 340 345 345 345 345 346 345 345 345 345 346 346 347 346 346 347 347 347 347 347 347 347 346 347 347 347 347 346 346 345 346 345 346 346 346 345 345 346 346 346 346 347 347 346 346 346 346 345 345 345 345 346 346 347 347 347 347 346 346 347 347 347 344 341 337 331 332 339 332 332 337 336 335 335 334 338 340 336 333 330 329
338 339 339 341 342 345 345 344 345 345 345 345 345 346 346 346 347 347 346 346 346 346 346 346 345 345 345 348 347 347 347 346 346 346 346 346 346 346 345 345 345 345 346 347 345 346 345 345 345 346 346 345 345 345 346 347 347 348 348 348 347 347 347 348 348 339 338 333 332 331 338 340 331 330 339 338 336 335 335 334 334 333 331 330 331
338 338 339 342 344 344 344 344 344 344 345 344 346 345 346 346 346 346 346 345 345 345 346 345 344 345 346 346 347 347 347 346 346 346 346 346 346 346 346 345 345 345 345 346 346 345 345 346 345 345 344 344 344 345 345 346 347 347 347 347 346 347 347 347 343 337 338 332 332 333 336 335 330 335 339 337 335 334 334 335 333 332 331 332 333
337 338 338 339 341 344 344 344 344 344 344 344 345 345 346 346 346 345 346 345 345 345 345 345 346 345 345 346 346 347 347 346 345 345 345 346 346 346 346 346 345 346 346 345 345 345 345 345 345 345 344 344 343 344 345 346 346 347 347 348 348 348 348 347 341 338 337 333 335 336 331 329 330 339 339 338 336 334 334 334 333 333 333 333 332
337 337 337 339 340 345 344 343 344 345 345 344 344 344 344 345 345 345 345 345 344 344 344 344 345 345 345 345 347 347 347 346 345 345 345 345 346 346 346 346 346 346 345 345 345 345 345 345 345 345 344 344 344 343 344 345 346 345 347 348 348 348 349 346 342 335 334 333 334 330 328 331 331 339 339 337 336 335 334 335 334 334 333 333 331
336 337 338 338 337 340 344 343 344 343 343 344 344 343 344 344 344 344 343 344 343 344 344 344 344 344 345 345 346 346 346 345 345 345 345 344 344 345 345 345 345 345 345 345 345 345 345 345 345 345 345 345 344 344 345 344 345 346 347 348 348 348 348 342 339 334 332 334 332 333 329 330 340 339 339 337 335 334 335 334 334 334 334 333 330
338 337 339 337 337 338 339 343 343 343 343 344 343 343 343 343 343 343 343 343 343 343 343 343 344 345 345 345 346 345 345 346 346 345 345 345 344 344 345 345 345 344 344 344 344 343 344 345 344 344 345 345 344 344 345 345 345 345 346 348 348 349 349 349 339 335 331 332 332 333 330 333 340 339 338 337 335 334 334 335 333 334 333 333 331
340 340 336 336 337 337 338 338 341 343 343 344 344 343 343 343 343 343 343 343 342 343 343 344 345 345 345 345 345 345 344 345 345 345 344 345 345 344 344 344 344 344 343 344 343 343 343 344 344 344 345 345 344 344 345 345 345 346 346 347 348 349 350 350 341 336 331 333 334 332 331 334 340 340 339 337 334 334 334 334 334 334 332 332 332
337 337 335 335 336 337 337 338 337 338 338 342 342 344 344 344 344 344 343 343 343 343 343 343 344 344 345 344 345 345 344 344 344 344 344 344 344 344 343 343 343 344 343 343 343 343 344 343 344 344 344 344 345 344 344 345 346 346 346 346 347 348 349 346 337 337 337 338 332 334 334 340 341 340 339 337 335 334 333 333 335 334 333 331 331
334 335 335 335 334 335 336 335 336 336 337 336 336 341 343 343 342 343 344 343 343 343 343 343 343 344 344 344 344 345 344 343 344 344 344 344 344 344 343 343 343 343 343 343 344 343 343 343 343 344 344 345 346 345 345 345 345 345 345 345 345 347 347 340 338 335 335 334 332 333 333 341 340 340 340 338 336 336 333 331 332 334 333 331 331
333 333 333 333 334 334 335 335 334 333 334 334 335 337 341 343 343 343 343 343 344 344 344 344 344 344 344 344 345 342 342 342 345 343 343 343 344 342 343 343 343 343 343 342 343 343 343 343 344 344 345 345 345 345 345 345 344 344 345 345 345 347 338 336 338 335 333 334 335 332 338 342 341 340 341 339 337 336 335 333 332 333 333 332 333
333 333 332 333 334 335 334 334 334 335 334 335 335 337 340 342 341 342 342 343 343 344 344 343 341 342 342 343 342 337 333 332 332 338 343 339 343 343 343 344 343 344 343 343 343 343 343 344 344 344 344 344 345 345 344 344 343 342 343 345 346 338 336 336 337 337 336 338 338 333 341 342 341 340 339 338 336 335 336 335 333 331 332 333 333
330 331 332 332 333 333 333 332 332 333 333 336 337 337 339 339 336 336 337 338 341 341 340 338 342 335 343 337 336 338 334 332 335 347 340 342 346 345 342 344 343 343 343 343 343 343 343 342 343 344 344 344 344 337 337 341 341 340 343 344 338 335 335 335 336 337 336 336 338 337 344 342 341 340 339 338 337 335 335 336 335 333 333 333 333
326 329 330 330 331 332 331 331 331 332 333 334 337 337 335 334 334 335 338 340 341 339 336 338 335 335 337 336 338 335 336 338 338 343 344 346 346 345 344 344 344 344 343 343 343 343 344 344 344 344 344 345 341 333 333 332 330 340 341 335 334 334 335 336 336 336 335 338 338 343 344 343 342 341 340 340 339 335 334 336 335 335 334 333 332
325 326 328 332 331 331 331 332 332 331 331 332 332 333 333 332 332 334 336 336 336 339 336 336 336 334 334 334 334 338 337 332 344 344 347 340 341 346 347 345 345 345 345 344 345 344 345 345 345 345 346 342 336 333 334 331 333 332 332 332 334 336 336 336 335 335 335 340 339 345 345 344 343 342 341 340 340 337 334 337 335 336 335 333 333
325 328 331 329 329 329 329 329 331 331 330 330 331 332 333 332 334 334 334 335 334 334 333 333 333 332 333 333 334 336 333 333 332 332 332 334 334 335 338 339 340 339 347 338 337 339 339 337 336 338 335 337 335 332 334 331 335 333 332 333 335 335 336 335 336 336 336 336 341 345 345 344 343 342 341 340 339 337 335 334 337 337 336 335 334
330 326 327 329 330 330 328 329 330 330 331 331 332 335 333 331 333 336 335 333 332 332 332 331 332 333 332 336 338 333 332 333 331 331 331 330 334 333 334 334 335 339 344 337 336 336 336 336 337 338 337 336 335 335 337 340 334 332 333 336 335 334 334 334 335 337 336 334 337 344 345 344 343 341 340 337 336 336 336 334 334 337 337 337 336
327 326 327 329 330 330 330 330 329 330 330 332 332 332 332 332 332 335 335 333 334 333 332 330 332 331 331 333 333 330 330 330 329 330 329 332 331 332 332 334 335 334 339 337 334 334 333 333 335 336 336 336 336 336 335 335 334 335 334 336 335 334 334 334 333 335 334 335 337 342 344 343 341 338 337 336 338 339 338 338 340 342 339 338 338
327 327 328 329 332 330 331 330 330 329 328 331 330 330 331 331 334 338 334 339 336 332 333 332 332 329 333 332 336 330 329 328 329 328 329 330 331 331 333 334 334 334 336 336 332 332 333 333 333 334 336 335 336 337 335 334 333 333 334 333 333 332 334 334 332 333 334 334 336 338 342 339 338 337 336 337 337 336 338 339 340 341 341 341 341
325 326 327 329 330 332 332 331 331 331 329 330 330 329 330 330 332 333 333 340 334 332 334 334 331 331 333 333 335 331 329 329 330 330 330 330 330 331 332 333 334 332 333 333 333 332 331 331 332 334 332 334 332 333 334 335 333 334 334 333 334 331 332 334 332 333 335 335 334 340 342 339 337 337 338 337 337 337 338 339 340 341 342 340 342
324 325 327 327 329 331 331 331 331 330 331 330 330 331 331 332 333 335 334 339 333 334 336 332 331 330 329 332 333 334 329 330 330 329 329 329 328 330 331 332 333 333 333 333 333 333 332 331 331 333 333 332 332 332 335 334 334 334 333 334 333 333 332 332 331 334 335 333 334 339 339 335 338 337 337 339 337 336 338 339 340 340 340 340 341
327 326 326 327 332 331 331 332 332 336 333 333 333 333 333 332 335 334 334 333 333 332 330 327 327 328 331 332 333 334 336 330 331 330 331 329 328 327 329 332 332 332 333 334 334 334 332 332 331 332 332 332 332 333 336 331 331 334 334 332 332 331 332 333 334 334 334 333 333 336 338 340 339 338 339 339 338 339 340 339 339 339 339 339 340
325 325 325 328 329 328 329 331 331 334 334 333 333 330 330 331 334 331 330 332 335 328 328 329 335 329 331 331 332 332 336 331 329 329 331 329 328 327 328 329 328 330 333 332 331 335 333 332 333 333 333 332 331 332 333 331 330 332 331 332 331 331 331 333 334 333 334 333 333 336 337 338 339 338 339 339 339 339 339 338 338 338 339 339 340
324 326 327 327 327 327 327 329 329 330 331 330 329 330 328 329 329 329 331 335 327 328 327 328 328 330 331 331 331 333 332 330 329 328 332 329 327 325 326 328 329 330 329 332 331 329 328 329 329 332 331 330 330 330 334 330 329 330 331 333 331 334 334 332 331 333 334 337 336 334 331 335 335 338 339 339 338 337 337 337 338 339 339 338 338
325 324 325 326 330 330 331 331 331 330 333 331 334 328 328 327 330 327 332 329 326 328 332 329 332 333 331 329 329 333 331 329 330 328 328 328 326 326 325 327 329 329 328 330 328 327 328 328 329 328 333 333 327 326 329 329 330 330 330 330 331 331 332 333 332 334 336 337 336 333 332 333 334 334 337 337 336 337 337 338 337 338 339 339 340
327 325 325 325 326 326 331 329 332 326 328 327 329 327 329 327 327 327 326 327 331 328 327 328 328 331 330 327 330 334 332 330 330 328 327 327 326 325 326 327 330 328 327 329 328 327 327 327 328 326 326 324 324 326 328 328 328 328 328 331 330 332 333 333 333 333 334 333 333 334 335 335 334 334 333 333 336 337 337 338 338 338 339 339 339
326 325 326 325 325 326 329 326 326 327 327 330 329 327 328 327 328 338 334 327 326 326 328 330 330 328 328 328 329 334 329 330 330 329 327 327 325 325 325 328 330 328 327 327 328 326 327 327 326 327 324 324 324 323 324 327 327 328 329 328 329 332 330 330 330 331 334 335 335 334 335 335 334 334 335 332 332 335 336 336 337 338 338 338 338
326 325 324 324 325 325 329 327 327 327 326 326 326 327 327 328 328 330 329 327 326 327 326 328 328 327 327 326 328 333 328 328 328 329 328 329 326 325 325 327 329 327 326 325 325 327 326 327 325 328 324 322 323 324 325 327 327 328 329 328 330 331 329 329 328 332 334 333 334 333 335 334 335 335 332 333 332 332 335 336 336 336 336 336 336
328 326 325 325 325 326 328 330 329 327 327 327 329 329 330 330 330 327 334 331 329 327 327 326 326 326 327 326 328 329 331 327 326 327 327 331 327 326 326 327 328 326 327 325 324 325 326 325 324 325 325 324 322 324 325 326 328 328 328 328 329 330 330 331 332 335 331 331 331 331 331 332 332 332 333 332 332 331 330 331 333 333 333 333 334
326 326 325 325 327 326 329 327 329 327 327 328 329 331 331 330 327 327 328 329 326 326 326 326 326 327 327 327 328 328 330 326 327 327 329 328 326 326 326 325 328 325 326 324 323 325 326 324 323 326 325 326 323 325 327 328 329 329 329 329 328 327 328 329 329 330 330 331 332 332 332 331 333 332 331 331 331 330 329 328 326 325 327 332 331
325 327 328 325 327 326 325 325 326 327 327 328 328 327 325 325 324 325 325 323 324 327 326 324 325 326 329 326 326 327 327 330 328 326 327 330 326 325 325 326 325 325 326 324 324 323 323 323 323 326 323 324 325 326 328 327 327 327 328 325 326 328 329 329 329 328 329 328 328 329 329 331 330 330 330 330 330 329 328 326 327 323 323 327 329
326 327 326 327 327 326 326 325 326 326 327 327 325 324 322 323 322 323 323 321 326 324 324 324 325 327 326 326 327 327 326 325 330 325 324 328 325 325 325 325 324 326 326 325 324 326 326 323 322 322 324 322 323 324 325 326 324 322 323 323 323 325 328 327 326 327 328 327 328 327 327 328 328 328 327 328 328 329 329 328 326 324 323 321 322
324 326 325 327 326 327 326 327 327 327 325 326 325 325 324 323 322 322 323 324 322 321 322 322 325 328 327 327 327 323 323 324 331 327 325 323 322 323 324 323 323 324 324 323 325 329 323 322 322 321 321 321 321 324 325 322 319 319 318 319 321 322 324 324 325 326 327 327 327 327 326 325 326 326 327 326 326 326 324 322 321 321 320 320 320
324 326 326 325 325 325 325 326 327 326 325 327 329 325 324 326 326 323 322 323 324 325 322 325 329 325 324 326 325 323 322 322 323 330 326 325 322 321 322 323 322 326 320 319 320 321 320 320 321 320 319 321 322 325 324 321 315 317 317 317 314 313 319 322 324 325 326 325 327 326 326 325 325 324 325 324 323 322 321 320 319 319 318 319 319
325 325 325 324 324 326 323 324 326 325 325 326 332 328 328 329 326 325 324 322 322 330 324 325 324 323 322 325 324 324 323 321 322 325 324 322 321 320 321 321 322 322 319 318 318 319 319 319 319 322 319 318 319 320 326 324 319 318 312 311 311 315 313 315 316 318 324 325 326 325 324 323 323 324 323 322 321 320 319 318 318 317 317 317 317
322 323 324 323 327 324 324 324 325 325 324 329 328 326 327 323 324 323 323 323 323 322 321 321 322 327 328 322 321 326 325 322 322 321 326 319 320 319 320 320 321 321 321 318 317 318 318 318 318 320 319 317 318 316 321 325 323 322 316 313 311 311 314 317 316 315 322 322 324 325 325 323 323 323 321 320 319 317 316 316 316 316 316 315 315
322 323 324 325 324 325 325 325 324 324 325 325 326 327 325 322 321 320 318 319 319 317 320 319 320 320 322 322 323 323 325 323 322 320 320 325 313 317 319 318 319 323 324 319 318 318 318 319 318 318 320 320 317 317 318 323 323 326 320 315 313 311 314 316 313 309 318 320 322 323 322 322 322 321 319 318 317 316 315 313 312 312 312 312 313
323 324 324 325 324 325 324 324 324 324 325 326 327 328 323 324 325 323 323 322 320 319 318 320 320 321 323 325 324 323 325 323 322 319 317 321 319 319 319 318 319 322 326 319 318 317 318 320 321 319 318 320 318 316 316 318 319 320 324 322 324 322 320 316 309 312 311 316 318 318 318 322 321 321 319 315 310 308 308 309 306 307 307 308 309
323 324 324 324 324 324 323 324 325 328 324 325 325 327 326 325 325 323 325 323 322 323 321 320 322 324 322 323 324 325 324 324 322 319 316 323 322 319 320 320 320 322 323 320 319 319 320 321 322 319 319 319 317 316 316 317 316 317 323 321 322 323 321 318 317 313 312 310 312 317 317 318 321 321 317 310 307 305 304 304 304 304 304 305 307
324 324 325 325 324 323 324 323 323 324 323 325 327 323 328 328 324 324 322 325 323 326 325 326 326 325 322 321 321 322 324 321 322 318 318 320 323 320 319 319 320 321 323 320 318 320 320 318 317 317 316 317 318 321 316 316 316 315 316 317 318 317 318 318 319 315 310 309 310 311 308 313 317 319 315 308 305 305 305 304 305 304 307 304 306
324 326 325 324 323 322 323 323 322 323 325 325 323 323 323 326 323 321 321 321 321 320 320 321 320 320 322 321 321 321 324 321 321 322 318 320 318 321 320 319 319 323 324 318 317 317 317 317 317 317 316 315 316 316 319 316 317 317 318 316 315 315 315 315 315 311 313 311 309 309 308 308 309 310 311 305 303 302 302 302 302 302 303 305 306
323 324 324 323 323 323 322 321 322 321 323 324 323 323 322 323 322 322 322 321 322 321 320 320 320 320 320 319 320 321 321 320 321 322 318 319 320 323 320 321 321 325 322 318 317 316 316 316 316 316 315 314 315 316 317 317 317 316 316 315 315 316 313 312 313 312 310 307 308 309 310 308 307 305 305 304 303 302 302 302 301 301 303 305 306
Wind_Speed
1 2 2 1 3 7 7 8 8 8 8 8 8 8 8 9 9 10 9 9 8 9 9 10 8 10 10 10 9 10 10 9 9 9 9 9 9 8 8 7 7 10 8 9 8 9 10 10 10 10 10 10 10 9 8 9 10 10 11 12 12 11 11 11 11 12 12 11 10 10 9 9 9 9 9 10 11 11 11 10 9 4 4 7 10
2 2 0 1 5 6 7 8 9 9 8 8 8 8 8 9 8 8 8 8 8 9 9 10 10 10 10 9 9 9 9 8 7 7 9 9 9 8 8 7 6 5 9 8 11 10 10 10 10 10 11 10 9 8 8 9 9 10 11 11 11 11 11 11 11 11 10 9 9 10 9 9 9 7 9 11 12 12 11 11 10 4 2 9 10
1 1 0 1 6 7 7 8 9 9 8 8 8 8 8 9 9 8 8 8 8 8 9 10 9 9 10 10 9 8 9 9 10 9 9 8 8 8 7 8 7 6 6 12 11 11 11 10 10 11 10 9 9 8 8 8 8 9 11 10 10 11 11 11 11 10 10 9 10 9 9 9 10 10 11 13 11 11 11 11 10 7 4 10 9
1 1 2 2 7 6 7 8 8 9 9 9 9 9 10 10 10 9 8 9 8 9 8 8 8 9 9 10 10 10 10 9 9 9 8 8 8 7 9 8 7 7 11 10 11 12 11 11 10 10 10 9 8 8 7 7 8 9 10 10 9 10 10 11 11 10 10 10 9 6 2 2 5 10 10 9 9 10 10 10 10 9 9 8 9
1 1 2 2 2 5 8 8 8 8 9 9 9 9 10 10 10 10 9 9 10 10 8 7 7 8 9 10 11 10 10 9 9 9 8 5 10 10 8 8 7 7 9 9 10 11 11 11 11 10 10 9 8 7 6 7 9 10 10 8 8 9 10 10 11 10 10 11 9 5 1 2 2 8 9 10 9 9 9 9 7 10 9 9 8
1 0 1 1 2 4 9 8 8 8 8 8 9 9 9 9 10 9 9 10 10 7 5 5 6 9 10 10 10 10 10 9 8 9 10 9 11 8 9 7 7 8 9 10 11 12 11 11 11 10 9 8 8 7 6 6 8 9 9 8 7 7 7 7 11 11 11 11 9 2 1 0 1 4 10 9 9 8 8 8 8 8 8 9 9
2 1 1 0 1 4 9 9 7 7 8 8 8 8 8 9 8 8 8 9 8 7 7 8 9 9 10 10 10 10 10 9 10 10 11 11 10 8 9 8 8 9 10 11 13 12 12 11 10 9 8 7 6 5 4 5 6 7 7 7 6 5 5 7 5 6 13 8 2 3 2 1 1 1 9 9 8 8 9 8 8 8 9 8 8
2 1 1 1 3 5 9 8 7 8 9 8 7 7 7 8 7 8 9 8 8 8 7 8 9 9 9 10 10 10 10 10 10 10 10 10 9 10 9 9 9 10 11 11 12 12 11 11 10 9 8 6 5 4 3 3 4 4 5 5 5 3 1 3 5 5 8 3 5 2 3 2 1 1 8 8 6 6 8 7 8 9 9 8 6
2 1 1 2 3 8 9 8 7 7 7 7 7 7 7 7 7 8 9 9 8 8 8 7 8 8 9 9 9 10 11 11 10 9 9 10 10 10 10 10 10 11 10 10 10 8 10 9 8 7 7 6 4 3 3 2 2 3 3 4 3 2 4 5 6 8 8 3 3 4 3 2 1 2 7 8 7 7 8 9 6 9 10 8 6
2 3 2 2 2 7 7 8 8 7 6 6 7 7 7 7 7 8 9 9 8 7 7 7 7 7 8 8 9 10 11 11 10 9 9 9 10 10 9 10 11 11 10 10 10 9 9 8 7 6 6 5 4 4 5 4 3 3 4 3 2 2 3 4 6 6 3 4 4 6 4 5 2 2 6 9 8 7 6 9 8 8 6 8 8
3 2 2 2 3 7 7 7 7 6 6 6 7 7 8 8 7 8 8 8 8 7 6 6 6 7 8 9 9 9 10 10 10 9 9 9 9 8 8 9 8 12 10 9 9 9 8 7 7 6 5 4 4 4 6 6 5 4 4 3 2 2 2 3 3 1 3 4 7 6 6 10 3 2 9 9 7 8 8 7 7 7 7 6 6
3 2 2 1 6 6 7 8 7 7 6 7 6 7 8 8 8 8 8 7 7 6 5 6 7 8 8 9 9 9 9 9 9 9 9 9 9 8 7 7 8 8 8 8 7 8 7 6 6 5 4 3 2 2 4 5 7 6 4 3 2 2 1 2 1 2 1 7 7 6 5 5 4 5 10 9 8 8 8 7 6 6 7 8 8
2 2 3 2 1 7 8 7 7 7 7 7 7 7 8 8 8 8 7 7 7 6 7 7 8 9 9 9 8 8 8 8 7 7 7 8 8 8 8 7 7 7 7 7 7 6 5 5 5 4 3 2 1 2 3 5 4 5 5 4 4 4 5 7 2 3 1 5 5 5 4 4 4 9 10 10 9 8 7 6 6 6 7 7 7
3 2 2 1 1 8 9 8 8 9 9 7 7 8 8 8 8 9 8 8 7 7 7 7 8 8 8 8 8 8 7 7 7 7 6 6 7 6 7 7 6 5 5 6 6 5 4 3 3 3 3 2 3 4 4 6 8 7 7 7 8 8 8 6 4 4 3 5 4 5 4 4 4 10 10 10 9 8 8 8 6 7 6 6 6
3 3 3 3 3 2 9 9 8 9 8 8 7 7 8 8 8 8 8 7 7 7 7 8 7 7 7 7 8 7 6 7 6 6 6 6 5 6 6 6 6 5 5 5 4 3 3 3 3 3 3 3 5 6 7 8 9 10 10 9 8 9 10 4 1 2 4 5 4 4 4 4 8 11 11 10 9 9 9 8 7 6 6 7 6
3 3 3 3 3 2 2 7 8 8 8 9 8 7 8 8 8 7 7 7 7 7 6 6 5 6 6 6 6 5 6 6 6 5 5 6 5 5 5 5 5 4 4 3 3 2 2 2 2 3 4 4 5 6 7 8 9 10 10 10 9 10 11 7 3 0 2 5 5 4 4 3 12 11 10 10 9 9 8 8 6 7 6 7 6
4 3 3 3 3 3 3 3 5 9 8 9 8 8 8 8 7 6 6 6 6 6 6 5 5 5 5 5 5 4 5 5 5 5 5 5 6 5 5 4 4 4 2 2 1 2 1 2 3 3 3 4 5 6 6 8 9 10 10 11 11 12 12 11 5 1 3 6 6 6 5 4 10 11 11 10 9 9 8 7 7 7 6 5 5
4 4 3 3 3 3 4 4 4 4 4 5 7 9 8 7 7 7 6 6 6 6 5 4 3 3 3 4 3 3 3 5 4 4 4 4 5 5 4 4 4 3 2 1 0 1 1 2 3 3 4 4 5 5 7 8 9 9 10 10 10 11 11 11 5 5 1 6 5 5 5 6 13 11 11 10 9 7 5 6 11 8 6 4 4
3 4 3 3 3 3 4 3 3 3 3 3 3 4 7 6 5 6 6 6 5 5 3 3 2 2 2 2 1 2 1 2 3 3 3 3 3 4 3 2 3 2 2 2 1 2 2 2 3 4 5 6 6 6 7 8 9 9 10 10 9 10 11 6 6 5 2 4 4 5 4 10 12 12 11 11 10 10 9 4 6 8 7 4 3
2 3 4 3 2 3 3 4 3 2 2 2 2 3 4 6 5 5 5 4 5 4 4 3 2 2 1 1 0 2 3 2 1 1 2 2 3 2 2 2 1 2 2 3 3 3 3 3 4 5 6 6 7 7 7 9 10 10 10 10 9 9 5 5 6 4 2 3 2 1 5 12 12 12 12 11 11 10 10 8 5 6 7 6 6
3 3 3 3 3 3 3 3 2 2 2 1 2 2 2 6 4 4 4 3 3 2 1 2 2 4 2 3 1 1 1 2 1 2 1 1 3 3 4 3 3 3 4 4 4 4 4 4 5 6 7 7 6 7 7 8 9 10 11 10 9 6 6 5 6 5 3 1 4 4 9 12 12 12 11 10 8 8 10 9 7 4 6 7 7
3 3 3 3 3 3 3 2 2 2 2 2 2 2 3 4 3 1 1 3 6 2 2 0 1 1 4 2 1 1 1 2 2 4 1 1 2 4 5 5 5 5 5 5 5 5 5 6 6 7 7 7 7 2 3 5 7 7 8 10 6 5 3 1 2 1 2 1 2 6 12 12 12 12 11 11 10 8 8 8 8 7 7 6 6
2 2 2 2 3 2 2 2 2 2 3 3 2 2 2 2 2 1 1 3 4 2 2 0 0 2 3 3 2 2 2 2 3 3 2 4 2 5 5 5 6 6 5 5 6 6 6 7 8 8 8 8 4 2 3 3 2 4 6 5 6 3 2 1 0 2 2 1 1 6 12 12 12 12 12 12 11 8 7 9 7 8 7 6 5
1 1 1 2 3 3 2 1 1 2 2 2 2 3 3 2 1 2 2 3 4 4 3 2 2 3 3 2 1 1 0 2 4 7 6 3 4 6 5 5 6 5 6 4 5 5 7 8 8 9 6 3 3 3 3 3 0 1 2 3 3 2 1 1 2 1 4 2 3 9 13 13 12 12 12 11 9 8 6 8 5 9 8 8 8
1 0 1 1 2 2 2 2 2 2 2 2 2 3 3 2 2 2 2 2 3 3 3 3 2 2 3 2 2 2 2 2 2 1 1 1 2 2 3 4 3 3 5 2 1 1 3 3 2 3 3 3 2 2 2 2 1 1 2 2 2 1 2 1 2 2 2 2 3 7 10 11 11 11 10 10 8 6 6 5 10 11 10 9 8
1 2 1 1 1 1 1 1 1 2 1 1 3 3 3 3 3 3 2 2 2 3 2 2 2 2 3 4 3 3 3 2 3 3 2 1 1 2 2 2 3 2 3 3 1 0 1 3 4 4 4 2 2 2 2 2 2 2 2 3 3 2 3 4 3 3 2 2 3 9 10 10 10 9 4 6 3 5 6 3 6 12 10 10 9
2 1 1 1 1 1 1 1 0 0 1 4 3 3 3 3 3 3 2 4 3 3 2 1 1 2 2 2 3 3 4 2 3 3 3 1 2 1 2 2 3 2 2 3 2 2 2 4 4 4 4 4 4 2 2 2 1 1 3 3 2 2 3 4 1 1 2 2 2 7 9 9 6 2 9 7 4 7 2 5 4 5 5 7 9
3 2 2 1 0 1 0 1 0 1 2 2 3 4 3 4 4 3 3 4 3 4 4 3 3 3 2 2 2 3 5 6 5 5 6 5 3 2 2 1 2 2 2 2 2 4 4 3 3 3 4 3 4 3 2 2 1 2 2 3 1 1 2 3 0 1 0 0 1 5 7 5 1 6 4 4 3 4 5 6 5 5 4 3 4
3 2 2 3 1 0 1 0 0 1 1 2 3 3 2 3 4 4 4 5 4 4 4 4 4 3 3 1 2 3 5 5 5 5 6 6 4 2 2 2 1 2 2 2 2 4 4 4 4 4 3 3 2 3 3 2 1 1 3 2 2 1 2 3 3 2 2 1 1 3 5 4 5 4 4 3 5 4 9 7 4 5 7 6 5
2 2 2 2 2 3 3 1 1 1 0 1 1 1 2 1 3 3 4 4 5 5 4 5 5 4 5 4 3 2 2 3 4 5 5 6 5 5 2 1 1 2 2 5 3 3 5 4 4 4 3 3 3 2 1 1 2 0 1 3 2 2 1 0 1 3 4 4 3 3 3 3 7 8 6 7 6 9 10 8 7 3 4 6 6
3 3 3 2 2 3 3 3 3 2 1 2 4 1 1 2 3 3 4 4 3 1 2 4 5 5 6 6 6 5 5 5 5 6 6 5 5 4 6 2 0 2 2 4 4 4 4 4 4 4 4 4 4 3 4 2 2 2 3 1 3 2 2 1 1 3 3 2 2 3 3 7 9 9 8 8 10 10 8 5 0 2 4 5 5
3 3 2 1 2 2 2 1 1 1 3 3 3 3 2 1 2 4 3 4 3 3 3 4 5 5 5 5 6 7 6 6 6 6 5 5 5 5 5 5 5 3 2 4 4 4 3 3 4 3 4 4 4 4 2 3 3 3 2 1 0 2 2 2 3 2 3 3 2 3 4 3 7 8 8 9 8 6 3 1 3 3 2 3 4
2 3 3 3 3 2 2 1 2 3 3 3 2 0 1 2 2 2 4 4 4 3 3 4 5 5 5 5 6 5 5 6 7 7 6 5 5 6 6 5 5 5 5 3 3 2 2 2 3 2 4 2 3 5 1 2 1 2 1 0 1 4 3 2 2 3 2 3 3 3 3 3 3 8 10 7 5 3 4 5 5 5 4 3 2
3 2 3 3 1 1 1 1 3 3 1 1 1 1 1 2 2 3 3 3 3 3 3 3 3 3 4 4 5 5 5 6 6 7 6 6 6 6 6 6 6 5 4 5 5 5 6 4 4 5 5 4 4 5 3 3 1 1 2 2 4 3 3 3 2 3 4 4 3 3 4 4 5 4 4 7 6 6 9 9 7 6 7 8 7
2 3 3 1 3 2 1 2 2 2 1 2 1 1 1 1 2 3 3 3 3 3 5 3 2 2 3 5 5 5 5 5 6 6 5 5 6 6 7 5 6 5 6 5 5 5 4 3 4 7 6 4 2 3 2 3 3 3 1 5 5 4 4 4 4 4 4 4 4 4 5 5 5 5 4 4 7 11 12 11 11 11 12 11 11
2 2 2 3 2 2 3 2 2 1 1 1 1 2 2 2 1 3 4 3 3 5 5 4 3 2 2 5 5 5 5 5 5 5 5 5 6 6 6 5 6 5 5 5 6 7 6 6 5 4 7 6 5 6 5 5 1 1 5 5 5 4 4 4 4 3 3 4 4 4 4 6 5 4 6 4 4 7 12 14 14 14 16 16 16
1 2 3 2 2 2 2 2 1 0 1 2 2 2 3 3 4 4 4 4 4 5 3 1 1 1 5 6 5 4 5 4 5 5 5 5 5 6 5 5 5 5 6 6 6 5 5 6 6 5 3 3 5 4 5 4 3 4 5 5 5 4 4 4 2 3 3 4 5 4 5 6 6 7 5 5 4 4 12 17 17 17 18 19 19
1 2 2 1 2 2 2 0 0 1 2 3 3 4 5 5 4 4 3 4 3 3 4 3 3 3 5 4 4 4 4 4 4 4 5 4 4 4 5 6 5 6 5 5 6 6 6 5 6 6 5 5 6 4 4 4 4 5 5 6 5 5 6 5 4 4 4 4 5 3 5 2 5 4 4 5 5 6 6 11 15 17 19 18 19
3 3 3 3 4 4 4 4 4 4 4 5 4 5 5 4 3 3 4 4 5 4 2 4 3 3 3 3 4 4 4 4 4 4 4 5 5 5 5 5 5 5 5 4 6 6 6 6 6 7 6 5 5 4 5 5 6 5 5 6 6 6 5 6 5 5 5 4 5 5 4 4 4 5 5 4 5 5 6 6 6 6 9 19 18
3 3 3 3 4 4 3 3 3 3 3 4 3 4 3 3 4 5 4 3 4 4 3 3 3 3 2 3 4 4 4 3 4 4 4 4 4 5 5 5 6 5 6 6 6 6 6 7 7 5 6 5 6 4 6 7 7 7 6 6 6 6 7 5 5 5 5 6 4 3 4 5 5 5 5 5 5 6 6 6 6 6 6 11 19
3 3 3 3 3 1 2 3 4 3 3 4 3 2 2 5 3 3 2 2 0 2 3 2 2 1 2 3 3 4 4 4 1 3 5 4 4 4 5 5 5 5 5 5 4 5 5 4 5 3 5 6 6 4 3 6 8 5 4 5 6 6 6 6 5 5 5 3 3 6 6 4 5 5 5 6 6 6 5 6 6 6 6 5 7
1 1 3 3 3 3 2 4 4 4 3 3 3 2 1 2 3 4 1 1 1 2 2 1 1 1 2 2 3 3 3 4 3 2 3 3 4 5 4 4 5 5 3 4 5 5 6 6 5 6 3 3 4 3 1 2 2 4 5 2 5 5 6 6 6 6 4 5 4 5 5 5 4 5 4 6 6 7 7 6 6 7 7 6 7
1 2 3 2 3 3 3 4 5 4 3 2 1 3 2 2 2 2 3 1 0 1 2 1 0 1 3 2 3 3 3 4 3 1 2 3 3 3 4 3 3 4 5 6 5 6 4 5 5 4 6 4 3 3 3 0 3 2 2 4 0 2 3 4 4 4 4 3 3 5 4 6 5 4 4 5 6 7 7 6 7 7 6 7 6
1 2 2 2 2 3 3 4 5 4 4 3 3 3 2 1 0 3 1 2 0 1 1 1 2 2 2 3 2 2 2 3 3 3 3 2 2 3 3 4 3 3 2 4 4 4 4 5 6 6 3 4 5 4 4 4 3 6 2 1 1 1 3 2 1 2 2 3 4 4 3 5 4 5 4 5 5 6 6 6 8 7 7 7 7
2 3 3 3 2 3 4 4 4 4 3 3 3 1 2 2 4 3 3 2 1 3 3 2 2 1 1 2 2 3 1 3 3 3 1 3 3 3 2 2 3 2 2 2 3 2 2 2 4 5 5 2 5 2 3 3 3 0 4 3 2 1 2 3 2 2 3 3 3 4 4 5 6 5 5 6 5 5 5 7 6 6 7 7 7
3 4 3 3 3 4 4 4 3 3 3 1 1 1 3 2 3 3 3 2 3 4 2 3 3 1 2 2 3 2 1 1 2 3 4 3 4 3 2 3 3 3 3 1 0 2 3 4 3 3 4 3 1 5 4 4 2 3 2 1 4 4 5 5 2 0 1 2 1 2 3 4 5 6 6 6 5 5 5 6 6 7 7 7 6
3 4 3 3 2 3 3 2 2 2 2 1 0 2 2 2 0 0 0 1 1 4 3 3 4 4 1 1 2 2 1 1 1 1 4 3 3 3 3 2 2 4 2 2 3 2 1 1 1 3 2 2 3 4 4 4 6 1 3 2 1 1 6 6 2 3 2 1 2 2 2 3 6 7 6 6 6 7 6 6 6 6 6 5 6
3 3 3 2 1 3 2 2 1 1 2 1 0 1 1 1 2 3 1 2 3 5 4 4 4 2 2 2 1 1 0 0 0 1 3 3 3 3 3 3 3 3 3 3 3 1 1 1 1 0 1 2 2 2 3 3 2 3 2 3 3 4 4 2 4 5 4 5 0 2 4 3 3 5 7 7 6 6 6 5 6 6 5 6 6
3 0 0 2 1 2 1 1 2 2 2 3 1 1 1 1 2 2 3 3 3 5 5 3 4 2 2 1 1 2 1 1 1 2 2 3 2 2 2 3 3 2 3 3 2 3 3 3 2 3 3 3 3 1 1 3 3 2 2 2 3 3 2 2 3 2 3 4 2 2 2 4 5 4 7 7 5 5 5 5 5 5 5 5 6
2 2 2 2 2 3 3 3 1 2 2 1 0 1 0 0 0 1 3 5 3 3 1 3 4 2 2 3 3 2 2 2 1 1 2 2 3 2 2 2 2 2 1 2 2 3 3 3 1 1 2 3 3 2 1 3 2 2 1 0 1 1 2 1 1 2 2 1 5 5 5 7 6 2 4 5 6 5 5 5 5 5 5 5 5
3 2 3 3 2 3 2 3 4 3 1 1 1 3 3 1 2 2 3 4 5 3 3 4 4 4 4 4 3 4 2 4 1 1 2 2 2 2 1 1 1 0 1 2 2 3 3 3 1 3 3 3 3 3 3 2 2 3 3 1 3 4 4 3 4 3 3 2 4 3 3 3 7 7 3 5 5 4 4 4 5 5 5 5 5
Wind_Direction
334 310 296 77 74 80 82 81 77 84 92 93 101 97 93 87 87 92 93 90 93 99 102 100 96 101 97 95 90 84 81 80 80 86 88 89 94 93 92 98 119 125 122 120 127 112 110 94 99 101 102 101 104 107 109 108 112 117 116 113 109 111 110 108 108 112 115 113 105 105 111 117 120 127 128 124 123 120 112 114 111 101 97 107 107
232 262 260 140 98 87 94 92 87 89 94 100 96 102 105 101 100 96 96 102 97 97 98 97 100 100 98 93 89 80 73 75 80 85 93 95 87 89 89 93 104 130 136 130 103 108 107 111 108 109 111 114 117 120 120 118 117 114 113 110 110 107 107 108 106 105 106 107 109 110 112 110 104 108 133 118 118 114 114 118 118 100 71 111 104
251 268 289 141 110 106 99 100 100 103 102 99 103 106 109 110 107 106 105 105 104 97 92 92 94 97 98 95 90 84 86 88 86 88 88 89 99 98 100 100 106 107 116 101 113 110 108 111 111 112 113 119 123 124 123 118 110 112 111 110 109 110 111 109 107 109 110 111 113 114 116 116 109 103 112 120 120 118 122 125 127 137 127 109 105
351 322 341 42 106 109 102 97 102 102 99 98 102 105 108 106 108 111 113 114 113 109 96 96 99 98 94 92 88 85 86 88 88 88 90 90 102 108 97 95 105 115 101 108 111 109 112 115 113 115 118 123 124 124 123 116 108 101 102 104 109 111 116 120 120 121 117 115 111 90 37 49 108 116 111 113 123 124 127 126 129 123 116 116 109
349 341 22 17 34 107 102 100 96 93 98 106 107 105 104 106 103 107 112 111 112 110 99 98 96 100 98 92 88 87 82 85 84 86 85 83 93 92 96 100 105 111 114 113 113 113 112 112 118 122 122 122 121 122 123 119 113 107 104 107 112 117 123 129 129 121 121 119 114 90 66 50 63 117 120 119 123 126 123 121 119 116 115 111 108
186 114 86 53 48 100 100 99 98 97 99 103 107 105 101 99 102 105 107 109 108 101 96 98 103 100 96 92 90 85 80 79 83 73 53 85 89 91 93 100 109 112 116 119 118 114 118 123 122 123 125 125 123 124 124 119 111 109 113 116 115 122 127 140 138 132 128 125 122 110 107 122 104 120 126 124 121 124 126 117 109 96 89 94 92
60 74 104 103 39 94 101 97 97 99 102 106 105 106 105 105 109 114 114 114 114 116 113 109 105 102 100 96 93 86 84 83 80 77 72 78 82 84 92 103 115 116 113 115 120 125 127 124 123 120 118 116 116 117 110 93 92 102 110 110 113 119 129 138 143 146 138 125 136 153 173 209 225 134 127 124 119 125 133 136 131 98 97 97 100
69 52 41 55 92 109 102 101 95 102 107 107 104 101 100 100 99 115 119 115 118 120 114 102 101 97 94 97 93 91 88 89 88 83 80 80 78 75 78 95 102 114 117 124 126 130 126 124 119 115 109 104 97 89 76 72 74 79 93 91 102 119 156 173 197 201 213 203 142 174 174 211 225 187 134 123 120 91 118 127 111 108 110 106 101
83 83 51 47 80 100 101 102 104 100 99 101 103 104 100 99 102 106 116 118 113 106 103 100 96 91 96 98 98 94 89 88 91 90 86 88 90 93 96 104 109 110 119 124 115 121 120 118 112 106 101 87 67 30 16 27 37 60 84 89 111 142 188 212 221 212 226 232 168 173 169 208 225 159 131 121 120 118 79 56 73 112 110 102 104
76 72 62 53 72 95 90 100 105 103 103 105 104 103 100 101 98 103 103 103 104 104 106 102 93 89 98 101 101 95 90 88 89 95 98 94 91 94 100 107 118 115 126 132 136 141 120 109 100 90 82 68 46 6 351 350 7 21 50 60 85 217 230 234 243 244 228 223 165 160 167 181 189 179 139 125 121 115 106 95 102 99 110 105 110
53 58 64 90 98 92 97 95 96 98 96 95 92 93 96 102 101 97 100 101 98 102 101 102 101 99 102 102 97 91 88 87 90 94 96 96 94 99 109 114 123 133 142 129 139 126 119 107 95 84 71 62 41 1 343 339 345 9 24 32 13 336 323 291 289 235 264 166 147 154 173 168 169 207 145 135 131 124 112 108 99 106 108 110 104
49 53 25 50 100 98 96 85 84 88 97 85 88 88 89 94 96 93 88 87 90 88 95 103 99 99 100 98 92 90 86 86 89 93 99 101 101 100 105 113 121 112 117 119 116 114 109 99 95 88 84 79 61 5 334 334 341 349 10 16 343 20 15 13 119 240 344 135 146 159 169 156 179 186 148 135 127 121 113 103 106 104 101 88 79
49 53 52 56 84 104 97 82 77 81 77 91 85 84 88 94 96 95 93 93 93 98 112 102 95 94 94 92 88 85 83 84 87 89 96 103 104 107 109 113 118 120 119 122 117 108 106 99 96 96 89 75 45 358 331 321 337 343 354 354 350 7 7 42 9 343 131 138 151 150 146 167 187 158 141 136 133 133 124 109 103 104 98 97 98
63 65 49 30 74 107 98 84 77 72 69 67 80 86 87 86 90 91 91 91 91 100 103 97 88 85 87 82 78 75 76 83 87 88 91 99 103 110 116 120 121 114 120 126 118 106 98 91 84 74 57 28 358 341 337 335 337 347 351 351 356 3 5 49 29 356 99 127 137 142 157 179 178 150 144 142 142 146 132 118 113 105 104 100 102
81 78 65 57 63 77 98 86 79 82 84 87 92 90 93 91 90 97 105 104 100 98 99 99 95 89 82 79 73 75 88 95 99 99 98 101 105 103 109 120 126 123 123 109 107 96 79 73 53 35 19 7 355 347 343 343 339 339 343 346 353 356 358 84 50 32 106 131 141 150 173 184 160 150 147 149 149 148 140 130 119 115 110 108 103
81 86 72 73 70 48 47 89 88 88 92 94 93 90 91 95 96 100 108 105 106 106 104 99 89 83 73 72 72 76 93 99 101 105 109 108 110 110 108 108 114 117 111 107 95 66 58 36 30 15 2 357 353 346 342 337 335 334 336 338 346 352 354 8 114 293 162 129 138 155 183 191 154 151 149 148 145 147 148 138 130 105 106 116 119
52 69 78 75 77 76 53 30 71 67 84 102 101 103 103 107 110 109 109 111 115 110 103 88 83 76 79 83 81 87 103 104 108 115 117 117 112 114 112 110 110 110 96 98 67 51 31 13 355 355 351 346 339 337 335 330 332 332 331 336 344 351 351 358 3 151 188 156 153 168 185 186 158 154 148 146 146 150 161 143 123 119 121 130 132
54 68 81 81 67 59 52 46 34 29 20 38 81 89 104 111 121 127 124 118 112 113 110 93 86 87 102 93 94 88 96 103 103 109 115 115 115 114 115 120 123 113 128 139 9 358 1 333 332 329 329 328 324 330 332 328 329 329 329 333 342 348 352 7 337 327 225 165 157 158 181 181 167 159 151 148 147 146 137 134 135 136 144 136 121
55 66 74 75 58 54 53 46 44 32 20 34 58 95 97 110 109 107 108 113 122 121 113 105 97 79 61 91 115 107 118 132 126 116 120 116 122 116 129 135 141 136 164 197 218 248 282 287 299 314 318 319 324 334 333 327 327 325 326 327 337 347 12 7 341 338 32 126 147 160 182 178 168 166 158 157 156 155 145 140 140 138 147 149 156
46 46 60 46 53 59 51 50 42 29 34 29 56 84 111 102 79 69 71 90 118 126 130 109 72 63 19 305 237 25 5 359 102 64 175 146 147 155 155 188 177 197 209 229 234 256 268 284 300 310 311 316 326 333 331 328 330 330 325 322 330 0 27 4 349 356 57 113 117 117 194 176 168 170 171 172 174 161 148 149 164 153 163 177 178
41 38 52 65 58 63 53 56 25 18 13 16 41 51 98 85 63 81 86 98 52 32 62 40 20 346 342 294 321 37 2 321 336 319 347 164 221 203 194 201 215 233 236 242 256 264 279 293 303 301 301 308 314 319 327 329 331 331 332 332 342 29 25 29 14 350 8 80 147 166 200 176 172 170 173 173 167 175 159 157 162 188 177 195 186
45 42 31 53 71 50 54 45 4 355 346 355 24 22 24 65 47 0 322 328 310 5 336 319 22 305 301 307 348 342 29 318 313 322 326 292 304 212 212 208 214 233 245 259 268 279 290 293 290 288 290 296 300 328 334 320 322 324 349 7 24 37 50 28 44 17 42 288 162 190 191 179 175 173 171 175 178 180 174 162 171 187 203 215 207
40 39 33 63 63 56 46 36 9 356 11 13 4 356 40 33 26 351 307 313 312 333 314 313 267 291 302 336 10 335 347 330 300 261 235 241 239 244 239 230 227 230 244 259 272 279 285 285 283 284 285 288 304 326 292 280 303 345 13 23 55 94 194 127 254 157 168 301 167 206 183 182 180 176 176 181 189 176 176 169 183 192 206 222 221
112 151 92 63 68 63 48 37 18 359 26 6 358 358 30 7 341 330 318 285 298 303 304 323 341 336 337 328 331 311 291 284 312 331 356 0 338 336 291 247 252 250 251 258 274 283 291 296 291 290 294 299 290 281 279 277 243 68 30 57 112 174 94 18 298 9 360 294 262 201 186 185 186 182 181 184 191 185 175 182 185 189 204 207 213
212 177 62 66 74 88 77 36 15 16 28 349 358 358 10 346 323 328 315 314 301 304 330 345 328 318 301 299 299 313 287 270 271 285 294 318 323 314 329 328 312 304 292 298 278 321 347 318 309 302 277 266 264 266 262 288 337 57 57 81 153 98 102 205 230 244 167 294 281 224 198 193 190 188 183 184 187 189 161 191 196 199 205 213 218
231 88 103 53 45 66 77 62 34 9 4 337 17 348 28 341 341 327 327 300 296 292 312 333 325 313 305 310 314 314 303 300 299 288 270 248 247 257 287 303 313 308 330 339 353 7 289 291 291 287 272 244 228 232 257 284 319 47 64 89 121 178 196 230 207 194 208 198 267 244 213 203 198 189 151 17 277 193 163 273 240 210 213 217 227
56 52 130 145 81 60 50 49 26 331 359 24 20 14 357 335 315 296 329 312 296 298 269 230 244 260 254 279 304 306 300 300 312 317 312 274 275 263 263 264 271 292 300 286 287 287 263 277 284 287 295 296 282 266 253 252 208 151 133 116 132 191 218 238 185 136 165 218 252 277 242 217 192 91 74 181 267 11 19 274 312 338 246 240 239
71 63 55 64 106 140 154 72 333 359 0 20 27 21 7 354 336 337 322 287 323 313 322 323 313 297 290 299 290 292 303 330 336 333 326 326 319 285 258 234 232 259 252 276 281 278 281 287 294 291 285 283 290 294 281 268 206 169 127 108 195 220 245 269 89 59 50 342 331 277 276 235 157 88 182 171 110 331 293 257 272 270 282 296 313
63 39 45 61 25 159 122 58 340 11 358 22 36 44 343 336 321 322 325 319 314 304 298 311 315 303 285 264 262 296 320 323 337 336 334 344 334 304 290 295 303 278 281 273 242 263 260 257 265 269 277 293 298 294 293 294 85 96 122 147 197 255 316 324 20 357 18 16 319 288 264 197 117 186 198 166 190 188 256 262 289 296 281 268 281
97 83 55 16 32 62 73 85 186 215 214 118 62 1 2 317 293 302 285 310 311 305 307 313 303 305 331 4 12 25 328 2 0 353 6 355 356 358 346 289 263 300 305 291 259 242 265 289 285 287 294 298 288 262 212 169 62 3 181 167 180 187 179 43 24 39 22 12 357 350 79 110 145 139 197 187 178 208 242 245 240 256 317 324 317
67 55 41 14 18 51 42 35 30 40 79 87 114 140 93 261 267 272 289 308 320 348 330 313 310 330 348 357 7 360 2 12 10 4 4 12 8 1 33 44 311 254 233 260 286 268 266 265 277 282 285 269 264 241 199 152 134 207 235 183 198 146 117 86 54 48 77 359 353 21 45 78 103 133 150 150 156 188 209 216 89 341 317 318 320
74 68 53 21 57 70 64 36 2 1 83 81 93 116 187 253 284 309 314 321 333 335 339 337 332 337 350 13 7 0 6 6 11 6 9 16 16 8 21 31 13 360 214 237 258 260 262 278 274 273 263 259 278 265 195 150 155 203 227 243 312 64 83 85 62 55 60 44 33 49 37 92 101 106 113 111 131 159 179 61 23 10 317 312 332
93 114 101 88 105 119 92 342 359 41 73 96 109 178 251 269 283 299 313 333 348 344 340 333 330 335 348 8 12 3 10 12 5 11 12 19 16 23 13 11 10 7 6 343 334 305 281 303 307 283 284 284 284 281 133 123 146 256 201 183 49 53 45 71 82 76 62 87 99 81 74 69 63 93 98 102 102 95 52 46 44 38 24 25 41
84 67 83 72 84 94 101 40 37 27 36 6 5 4 307 283 275 290 296 320 330 343 320 346 326 331 337 11 11 4 10 13 22 13 17 13 13 21 16 2 358 12 19 18 16 359 7 358 340 349 336 334 324 298 129 119 90 300 285 27 60 68 79 61 70 70 70 84 90 83 77 70 74 74 78 89 88 77 67 66 58 47 45 56 63
63 54 67 55 44 34 86 56 56 30 6 344 336 291 285 281 290 295 303 335 328 343 338 329 297 327 335 17 11 5 8 11 21 30 14 18 17 20 15 354 357 12 18 10 18 9 17 349 350 3 345 344 338 350 106 125 132 216 332 46 45 48 58 70 49 66 77 91 96 88 79 77 77 73 53 36 62 70 74 72 65 59 58 56 55
73 80 53 43 35 23 77 80 44 33 321 289 260 256 264 261 290 318 310 307 333 332 2 343 355 0 337 25 12 9 13 13 15 22 25 24 24 21 7 360 2 10 16 11 19 15 355 0 5 18 2 352 8 15 54 104 153 37 29 44 48 55 64 61 62 59 88 98 89 99 95 91 83 88 80 40 36 69 75 71 67 62 57 57 55
31 44 49 23 22 4 67 85 102 272 284 309 309 307 319 335 337 315 301 320 333 334 326 7 339 1 32 26 15 14 9 15 16 19 29 19 22 17 5 7 7 14 11 7 19 7 16 1 351 8 26 352 25 48 55 94 86 41 26 37 39 46 54 49 64 75 64 79 67 29 81 82 95 85 52 53 47 33 66 66 63 59 56 55 55
351 40 23 33 348 339 21 126 353 299 297 298 327 338 327 322 314 326 325 327 340 351 34 31 15 28 32 22 17 9 12 3 11 16 24 14 25 24 4 10 9 12 15 12 6 7 10 15 360 357 6 12 36 63 66 60 55 41 40 41 36 38 34 20 8 31 44 52 101 138 90 129 95 75 69 68 60 56 37 46 49 53 53 53 52
353 14 11 358 4 6 6 358 349 339 342 347 334 328 318 308 306 348 349 354 27 40 59 57 24 45 36 7 9 354 355 357 4 13 27 17 11 10 13 1 13 14 16 10 12 12 9 7 13 354 359 25 56 63 73 68 59 60 51 40 47 42 40 34 13 14 25 27 60 73 101 98 101 91 91 83 74 60 54 45 39 31 47 55 53
351 2 3 5 352 353 14 337 328 329 335 327 327 312 321 332 330 334 353 20 9 50 41 59 44 39 13 19 4 354 342 350 343 11 29 33 16 359 356 8 6 21 18 10 2 9 12 7 4 2 4 22 54 64 93 85 64 49 51 42 37 39 46 36 34 40 23 14 16 350 89 100 87 89 93 84 67 65 64 59 51 49 30 46 55
344 350 350 336 329 320 359 308 289 316 310 299 303 308 327 323 339 343 315 324 279 75 42 353 40 8 2 359 355 348 347 336 18 15 30 24 23 7 358 359 4 22 29 12 2 13 12 16 355 3 16 23 50 44 59 98 105 66 31 41 36 33 41 43 39 33 39 17 18 40 40 34 76 89 94 94 87 76 63 48 44 40 41 28 41
296 334 318 302 321 336 290 274 293 293 276 248 254 321 225 230 244 254 246 268 79 64 54 6 1 358 11 333 325 5 16 14 13 26 30 43 32 13 359 352 358 9 33 25 26 25 19 17 10 360 9 33 37 66 289 81 32 138 128 58 44 35 35 23 23 28 38 21 35 83 107 93 78 87 93 93 85 76 64 54 47 45 36 33 38
223 230 249 297 307 306 284 266 270 266 267 247 248 264 261 303 247 210 155 121 75 214 160 255 357 6 328 333 337 360 21 41 9 339 36 2 43 20 350 342 15 1 39 24 24 26 15 21 17 19 340 356 17 10 30 109 159 111 92 97 99 39 21 15 10 13 11 75 58 53 76 99 91 76 75 82 86 83 72 58 53 47 34 35 29
273 274 279 271 293 292 265 250 260 272 276 297 285 267 229 300 261 113 87 107 152 38 22 348 16 9 344 325 328 18 2 47 39 44 20 342 37 22 349 349 6 38 24 64 32 23 21 19 16 16 20 11 1 334 8 14 105 127 144 167 184 107 117 54 14 333 355 40 74 93 92 90 88 78 66 79 79 88 89 80 65 51 44 42 34
245 260 271 278 276 276 272 262 265 275 306 311 302 9 43 15 9 7 32 28 13 13 23 346 330 321 306 330 314 355 359 38 44 53 46 17 11 27 32 9 23 74 59 75 78 61 23 11 25 33 28 24 350 337 334 16 48 113 145 101 62 33 210 148 129 345 356 21 44 72 94 97 94 89 84 73 67 65 79 75 67 58 52 44 33
241 248 236 249 263 282 278 267 279 299 285 276 261 78 66 65 40 33 3 10 345 339 313 261 278 270 224 243 297 357 344 8 69 52 28 25 14 20 29 47 36 27 71 41 99 69 46 45 11 42 20 10 77 0 350 337 5 12 68 157 171 170 158 174 94 197 347 39 348 45 102 97 91 89 86 91 85 72 58 65 54 51 44 37 30
250 255 260 270 290 275 274 263 271 275 248 226 62 63 43 48 76 165 178 222 262 273 246 254 226 244 230 274 274 322 0 22 6 76 53 39 35 27 57 35 23 40 51 66 45 21 1 59 19 55 355 6 40 15 349 318 332 2 26 350 335 130 147 138 158 114 92 349 10 80 88 100 113 109 97 76 75 75 63 63 59 54 48 36 30
265 269 278 322 311 290 279 266 344 316 288 300 24 82 32 326 307 281 237 243 216 248 253 249 240 226 194 225 236 266 270 227 240 60 66 75 57 35 42 71 50 41 79 67 69 28 332 27 65 178 50 41 34 34 324 349 27 293 12 8 17 83 92 78 139 152 141 150 16 47 60 61 103 103 99 96 89 88 85 68 68 59 49 41 31
10 318 211 297 323 315 306 334 12 354 331 327 284 25 67 326 278 264 280 254 233 248 252 246 227 208 199 282 233 231 214 187 198 127 114 105 91 77 86 85 74 54 85 82 83 85 66 61 18 7 25 1 8 12 64 342 3 310 357 356 29 45 41 51 115 87 136 135 114 142 112 45 50 59 92 93 90 82 84 83 77 66 61 47 38
307 297 346 16 9 16 21 352 326 325 319 336 335 285 85 106 350 261 251 277 271 286 270 262 261 271 225 252 248 243 194 198 176 119 112 99 87 90 101 102 129 123 101 115 111 82 74 51 336 86 28 20 346 4 349 309 334 328 20 173 71 33 44 46 108 97 59 44 156 169 155 144 124 34 76 86 88 78 77 80 78 68 62 56 43
310 339 346 353 346 29 22 359 302 290 293 288 286 282 281 270 259 255 260 270 276 260 272 268 260 262 238 243 244 236 191 200 151 177 143 112 101 103 101 81 125 126 121 127 137 125 97 94 22 62 41 8 359 341 356 327 338 15 15 104 182 176 178 183 193 180 147 132 108 124 96 92 124 114 71 88 84 77 76 68 82 72 66 63 55